Location: Alamogordo
(32.8990°N, 105.9600°W)
Time: 02:25:08
(UTC-06:00)

HTV-X1 - Visible Passes

Search period start: 12 June 2026 00:00
Search period end: 22 June 2026 00:00
Orbit: 368 x 378 km, 51.6° (Epoch: 26 May)

Date Brightness Start Highest point End Pass type
(mag) Time Alt. Az. Time Alt. Az. Time Alt. Az.
15 Jun ? 05:23:08 10° S 05:25:43 25° SE 05:28:18 10° ENE visible
17 Jun ? 04:52:27 16° SSW 04:54:31 42° SE 04:57:25 10° ENE visible
18 Jun ? 03:51:35 13° ESE 03:51:35 13° ESE 03:52:51 10° E visible
18 Jun ? 05:23:53 10° WSW 05:26:42 33° NW 05:29:31 10° NNE visible
19 Jun ? 04:22:32 51° SSW 04:23:08 72° SE 04:26:10 10° NE visible
20 Jun ? 03:21:26 14° E 03:21:26 14° E 03:22:04 10° ENE visible
20 Jun ? 04:53:21 13° W 04:55:17 23° NW 04:57:48 10° NNE visible
21 Jun ? 03:52:08 51° NNE 03:52:08 51° NNE 03:54:35 10° NE visible
